Погода в Буштыне

Украина / Закарпатская область     48°03′13″N   23°28′36″E
темп.,
°C
ветер,
м/с
пор.,
м/с
влажн.,
%
обл.,
%
осадки,
мм/ч
давл.,
гПа
погр.,
м
17 мая, вт
вт1700:00+12вюв11765 0.0 101811
03:00+11вюв227755 0.0 101812
06:00+11в227892 0.0 101717
09:00+16св116998 0.1 1017181
12:00+17юз2374100 0.6 1017326
15:00+19з2360100 1.4 1015781
18:00+17сз2381100 1.3 101480
21:00+13св2796100 5.8 1014352
18 мая, ср
ср1800:00+11св2396100 4.0 101694
03:00+8с239580 4.0 101860
06:00+4ссв33910 0.0 102144
09:00+8ссв37663 0.0 10241280
12:00+13ссв48360 0.0 10252045
15:00+15с36375 0.0 10252199
18:00+15ссз34480 0.0 10251457
21:00+9с11720 0.0 102716
19 мая, чт
чт1900:00+6в22720 0.0 102914
03:00+5в22770 0.0 103022
06:00+4в22810 0.0 103120
09:00+10всв11645 0.0 1030296
12:00+15зсз22470 0.0 1029951
15:00+17з32442 0.0 10281139
18:00+17з23505 0.0 1027891
21:00+11ю116951 0.0 102710
20 мая, пт
пт2000:00+9вюв226816 0.0 102713
03:00+8вюв227012 0.0 102714
06:00+7вюв2276100 0.0 102717
09:00+13всв1166100 0.0 1027220
12:00+18з235438 0.0 1025942
15:00+19зюз3454100 0.0 10241045
18:00+18юз135775 0.0 1022927
21:00+13юв22755 0.0 102119
21 мая, сб
сб2100:00+12вюв22735 0.0 102013
03:00+11вюв2275100 0.0 101819
06:00+11вюв2275100 0.0 101719
09:00+15с0173100 0.1 1015139
12:00+17юз137182 0.6 1015775
15:00+21з2470100 1.0 1014956
18:00+20сз357994 1.8 1012849
21:00+16зсз2388100 4.8 101341